| time (UTC) | temp C | wind direction | speed KPH | gust KPH | rain 1hr cm | rain 24hr cm | rain mn cm | humidity % | barometer mb |
| 20260510220336 | 41 | 284 | 9.7 | 19.3 | 0.00 | 0.00 | 0.00 | 7 | 1007.2 |
| 20260510215343 | 41 | 251 | 6.4 | 14.5 | 0.00 | 0.00 | 0.00 | 7 | 1007.4 |
| 20260510214331 | 41 | 188 | 3.2 | 16.1 | 0.00 | 0.00 | 0.00 | 7 | 1007.5 |
| 20260510213340 | 41 | 257 | 9.7 | 19.3 | 0.00 | 0.00 | 0.00 | 7 | 1007.8 |
| 20260510212347 | 40 | 223 | 6.4 | 12.9 | 0.00 | 0.00 | 0.00 | 7 | 1007.9 |
| 20260510211334 | 40 | 309 | 4.8 | 11.3 | 0.00 | 0.00 | 0.00 | 7 | 1008.1 |
| 20260510210342 | 41 | 275 | 6.4 | 19.3 | 0.00 | 0.00 | 0.00 | 7 | 1008.2 |
| 20260510205327 | 40 | 203 | 3.2 | 14.5 | 0.00 | 0.00 | 0.00 | 7 | 1008.3 |
| 20260510204358 | 40 | 338 | 4.8 | 12.9 | 0.00 | 0.00 | 0.00 | 8 | 1008.4 |
| 20260510203345 | 40 | 240 | 1.6 | 11.3 | 0.00 | 0.00 | 0.00 | 8 | 1008.6 |
| 20260510202332 | 40 | 262 | 1.6 | 16.1 | 0.00 | 0.00 | 0.00 | 8 | 1008.7 |
| 20260510201338 | 40 | 50 | 0.0 | 6.4 | 0.00 | 0.00 | 0.00 | 7 | 1008.7 |
| 20260510200350 | 39 | 246 | 1.6 | 11.3 | 0.00 | 0.00 | 0.00 | 8 | 1008.8 |
| 20260510195336 | 39 | 56 | 4.8 | 8.0 | 0.00 | 0.00 | 0.00 | 8 | 1008.8 |
| 20260510194345 | 39 | 20 | 0.0 | 0.0 | 0.00 | 0.00 | 0.00 | 8 | 1008.9 |
| 20260510193332 | 39 | 100 | 0.0 | 8.0 | 0.00 | 0.00 | 0.00 | 8 | 1009.0 |
| 20260510192344 | 39 | 184 | 1.6 | 6.4 | 0.00 | 0.00 | 0.00 | 9 | 1009.1 |
| 20260510191330 | 38 | 151 | 0.0 | 8.0 | 0.00 | 0.00 | 0.00 | 8 | 1009.1 |
| 20260510190337 | 38 | 209 | 0.0 | 9.7 | 0.00 | 0.00 | 0.00 | 9 | 1009.2 |
| 20260510185345 | 37 | 90 | 1.6 | 8.0 | 0.00 | 0.00 | 0.00 | 8 | 1009.3 |
| 20260510184355 | 37 | 107 | 6.4 | 12.9 | 0.00 | 0.00 | 0.00 | 9 | 1009.4 |
| 20260510183404 | 37 | 177 | 4.8 | 11.3 | 0.00 | 0.00 | 0.00 | 9 | 1009.6 |
| 20260510182350 | 37 | 50 | 0.0 | 11.3 | 0.00 | 0.00 | 0.00 | 9 | 1009.7 |
| 20260510181335 | 37 | 64 | 0.0 | 9.7 | 0.00 | 0.00 | 0.00 | 9 | 1009.7 |
| 20260510180342 | 36 | 48 | 3.2 | 9.7 | 0.00 | 0.00 | 0.00 | 10 | 1009.8 |
| 20260510175334 | 36 | 59 | 4.8 | 14.5 | 0.00 | 0.00 | 0.00 | 10 | 1009.9 |
| 20260510174341 | 36 | 180 | 1.6 | 12.9 | 0.00 | 0.00 | 0.00 | 10 | 1009.8 |
| 20260510173328 | 35 | 158 | 4.8 | 11.3 | 0.00 | 0.00 | 0.00 | 10 | 1009.8 |
| 20260510172339 | 35 | 32 | 1.6 | 9.7 | 0.00 | 0.00 | 0.00 | 11 | 1009.8 |
| 20260510171328 | 35 | 117 | 3.2 | 11.3 | 0.00 | 0.00 | 0.00 | 10 | 1009.8 |
| 20260510170335 | 35 | 142 | 6.4 | 12.9 | 0.00 | 0.00 | 0.00 | 12 | 1009.7 |
| 20260510165341 | 35 | 144 | 3.2 | 9.7 | 0.00 | 0.00 | 0.00 | 12 | 1009.7 |
| 20260510164332 | 34 | 110 | 4.8 | 11.3 | 0.00 | 0.00 | 0.00 | 12 | 1009.7 |
| 20260510163342 | 33 | 65 | 1.6 | 9.7 | 0.00 | 0.00 | 0.00 | 13 | 1009.6 |
| 20260510162329 | 33 | 59 | 1.6 | 4.8 | 0.00 | 0.00 | 0.00 | 13 | 1009.5 |
| 20260510161336 | 32 | 62 | 3.2 | 8.0 | 0.00 | 0.00 | 0.00 | 12 | 1009.6 |
| 20260510160327 | 32 | 41 | 1.6 | 6.4 | 0.00 | 0.00 | 0.00 | 13 | 1009.5 |
| 20260510155336 | 32 | 126 | 0.0 | 1.6 | 0.00 | 0.00 | 0.00 | 14 | 1009.5 |
| 20260510154344 | 32 | 77 | 0.0 | 4.8 | 0.00 | 0.00 | 0.00 | 15 | 1009.5 |
| 20260510153331 | 31 | 79 | 0.0 | 0.0 | 0.00 | 0.00 | 0.00 | 15 | 1009.5 |
| 20260510152341 | 30 | 67 | 0.0 | 3.2 | 0.00 | 0.00 | 0.00 | 16 | 1009.5 |
| 20260510151328 | 30 | 77 | 0.0 | 6.4 | 0.00 | 0.00 | 0.00 | 16 | 1009.5 |
| 20260510150335 | 30 | 95 | 3.2 | 11.3 | 0.00 | 0.00 | 0.00 | 16 | 1009.5 |
| 20260510145402 | 29 | 105 | 4.8 | 11.3 | 0.00 | 0.00 | 0.00 | 16 | 1009.4 |
| 20260510144332 | 28 | 98 | 1.6 | 14.5 | 0.00 | 0.00 | 0.00 | 16 | 1009.4 |
| 20260510143359 | 28 | 114 | 3.2 | 9.7 | 0.00 | 0.00 | 0.00 | 17 | 1009.3 |
| 20260510142344 | 27 | 120 | 3.2 | 11.3 | 0.00 | 0.00 | 0.00 | 18 | 1009.2 |
| 20260510141331 | 26 | 105 | 0.0 | 9.7 | 0.00 | 0.00 | 0.00 | 20 | 1009.1 |
| 20260510140342 | 25 | 114 | 1.6 | 11.3 | 0.00 | 0.00 | 0.00 | 21 | 1009.0 |
| 20260510135329 | 24 | 130 | 1.6 | 9.7 | 0.00 | 0.00 | 0.00 | 25 | 1008.9 |
| 20260510134335 | 23 | 129 | 1.6 | 8.0 | 0.00 | 0.00 | 0.00 | 26 | 1008.9 |
| 20260510133341 | 23 | 145 | 0.0 | 1.6 | 0.00 | 0.00 | 0.00 | 28 | 1008.8 |
| 20260510132351 | 22 | 121 | 0.0 | 9.7 | 0.00 | 0.00 | 0.00 | 29 | 1008.7 |
| 20260510131336 | 22 | 44 | 0.0 | 0.0 | 0.00 | 0.00 | 0.00 | 31 | 1008.6 |
| 20260510130342 | 22 | 29 | 0.0 | 0.0 | 0.00 | 0.00 | 0.00 | 30 | 1008.2 |
| 20260510125329 | 22 | 336 | 0.0 | 0.0 | 0.00 | 0.00 | 0.00 | 30 | 1008.2 |
| 20260510124335 | 22 | 329 | 0.0 | 0.0 | 0.00 | 0.00 | 0.00 | 29 | 1008.0 |
| 20260510123345 | 22 | 312 | 0.0 | 0.0 | 0.00 | 0.00 | 0.00 | 27 | 1007.9 |
| 20260510122333 | 22 | 326 | 0.0 | 0.0 | 0.00 | 0.00 | 0.00 | 28 | 1007.9 |
| 20260510121339 | 22 | 326 | 0.0 | 0.0 | 0.00 | 0.00 | 0.00 | 25 | 1007.7 |
| 20260510120329 | 22 | 326 | 0.0 | 0.0 | 0.00 | 0.00 | 0.00 | 25 | 1007.7 |
| 20260510115340 | 22 | 326 | 0.0 | 0.0 | 0.00 | 0.00 | 0.00 | 25 | 1007.7 |
| 20260510114328 | 23 | 326 | 0.0 | 0.0 | 0.00 | 0.00 | 0.00 | 25 | 1007.8 |
| 20260510113334 | 23 | 347 | 0.0 | 0.0 | 0.00 | 0.00 | 0.00 | 24 | 1007.7 |
| 20260510112342 | 23 | 347 | 0.0 | 0.0 | 0.00 | 0.00 | 0.00 | 24 | 1007.8 |
| 20260510111333 | 23 | 342 | 0.0 | 0.0 | 0.00 | 0.00 | 0.00 | 24 | 1007.6 |
| 20260510110340 | 23 | 342 | 0.0 | 0.0 | 0.00 | 0.00 | 0.00 | 24 | 1007.5 |
| 20260510105349 | 23 | 342 | 0.0 | 0.0 | 0.00 | 0.00 | 0.00 | 23 | 1007.3 |
| 20260510104335 | 24 | 342 | 0.0 | 0.0 | 0.00 | 0.00 | 0.00 | 23 | 1007.2 |
| 20260510103326 | 24 | 342 | 0.0 | 0.0 | 0.00 | 0.00 | 0.00 | 22 | 1007.3 |
| 20260510102334 | 24 | 342 | 0.0 | 0.0 | 0.00 | 0.00 | 0.00 | 21 | 1007.2 |
| 20260510101401 | 25 | 342 | 0.0 | 0.0 | 0.00 | 0.00 | 0.00 | 21 | 1007.3 |
| 20260510100328 | 25 | 342 | 0.0 | 0.0 | 0.00 | 0.00 | 0.00 | 21 | 1007.1 |
| 20260510095339 | 25 | 342 | 0.0 | 0.0 | 0.00 | 0.00 | 0.00 | 20 | 1006.9 |
| 20260510094327 | 25 | 342 | 0.0 | 0.0 | 0.00 | 0.00 | 0.00 | 19 | 1006.9 |
| 20260510093334 | 25 | 342 | 0.0 | 0.0 | 0.00 | 0.00 | 0.00 | 20 | 1006.9 |
| 20260510092340 | 25 | 355 | 0.0 | 0.0 | 0.00 | 0.00 | 0.00 | 21 | 1006.9 |
| 20260510091331 | 25 | 355 | 0.0 | 0.0 | 0.00 | 0.00 | 0.00 | 21 | 1006.8 |
| 20260510090339 | 26 | 355 | 0.0 | 0.0 | 0.00 | 0.00 | 0.00 | 21 | 1006.7 |
| 20260510085327 | 26 | 312 | 0.0 | 0.0 | 0.00 | 0.00 | 0.00 | 21 | 1006.7 |
| 20260510084333 | 26 | 264 | 0.0 | 0.0 | 0.00 | 0.00 | 0.00 | 20 | 1006.7 |
| 20260510083344 | 27 | 221 | 0.0 | 0.0 | 0.00 | 0.00 | 0.00 | 19 | 1006.6 |
| 20260510082329 | 27 | 220 | 0.0 | 0.0 | 0.00 | 0.00 | 0.00 | 17 | 1006.6 |
| 20260510081336 | 28 | 302 | 0.0 | 0.0 | 0.00 | 0.00 | 0.00 | 18 | 1006.5 |
| 20260510080343 | 28 | 302 | 0.0 | 0.0 | 0.00 | 0.00 | 0.00 | 17 | 1006.5 |
| 20260510075334 | 29 | 302 | 0.0 | 0.0 | 0.00 | 0.00 | 0.00 | 16 | 1006.6 |
| 20260510074342 | 29 | 302 | 0.0 | 0.0 | 0.00 | 0.00 | 0.00 | 15 | 1006.6 |
| 20260510073329 | 30 | 302 | 0.0 | 0.0 | 0.00 | 0.00 | 0.00 | 14 | 1006.6 |
| 20260510072338 | 30 | 302 | 0.0 | 0.0 | 0.00 | 0.00 | 0.00 | 13 | 1006.5 |
| 20260510071329 | 31 | 302 | 0.0 | 0.0 | 0.00 | 0.00 | 0.00 | 12 | 1006.5 |
| 20260510070337 | 31 | 282 | 0.0 | 0.0 | 0.00 | 0.00 | 0.00 | 12 | 1006.5 |
| 20260510065344 | 31 | 289 | 0.0 | 4.8 | 0.00 | 0.00 | 0.00 | 12 | 1006.4 |
| 20260510064335 | 31 | 272 | 0.0 | 9.7 | 0.00 | 0.00 | 0.00 | 12 | 1006.4 |
| 20260510063343 | 31 | 263 | 1.6 | 11.3 | 0.00 | 0.00 | 0.00 | 12 | 1006.4 |
| 20260510062350 | 32 | 286 | 0.0 | 12.9 | 0.00 | 0.00 | 0.00 | 12 | 1006.2 |
| 20260510061357 | 32 | 261 | 1.6 | 16.1 | 0.00 | 0.00 | 0.00 | 11 | 1006.1 |
| 20260510060344 | 32 | 261 | 0.0 | 12.9 | 0.00 | 0.00 | 0.00 | 12 | 1006.1 |
| 20260510055355 | 32 | 242 | 1.6 | 12.9 | 0.00 | 0.00 | 0.00 | 12 | 1006.1 |
| 20260510054400 | 32 | 267 | 1.6 | 11.3 | 0.00 | 0.00 | 0.00 | 12 | 1006.0 |
| 20260510053326 | 32 | 266 | 1.6 | 11.3 | 0.00 | 0.00 | 0.00 | 11 | 1005.9 |
| 20260510052335 | 33 | 275 | 4.8 | 14.5 | 0.00 | 0.00 | 0.00 | 11 | 1005.9 |
| 20260510051326 | 33 | 292 | 0.0 | 11.3 | 0.00 | 0.00 | 0.00 | 11 | 1006.0 |
| 20260510050334 | 33 | 291 | 0.0 | 14.5 | 0.00 | 0.00 | 0.00 | 11 | 1005.9 |
| 20260510045341 | 33 | 274 | 0.0 | 6.4 | 0.00 | 0.00 | 0.00 | 11 | 1005.8 |
| 20260510044327 | 33 | 276 | 3.2 | 9.7 | 0.00 | 0.00 | 0.00 | 11 | 1005.7 |
| 20260510043339 | 33 | 252 | 4.8 | 12.9 | 0.00 | 0.00 | 0.00 | 10 | 1005.6 |
| 20260510042326 | 34 | 265 | 3.2 | 16.1 | 0.00 | 0.00 | 0.00 | 11 | 1005.6 |
| 20260510041334 | 34 | 240 | 3.2 | 14.5 | 0.00 | 0.00 | 0.00 | 10 | 1005.4 |
| 20260510040401 | 34 | 290 | 0.0 | 9.7 | 0.00 | 0.00 | 0.00 | 10 | 1005.3 |
| 20260510035347 | 34 | 250 | 1.6 | 11.3 | 0.00 | 0.00 | 0.00 | 10 | 1005.2 |
| 20260510034337 | 35 | 233 | 1.6 | 12.9 | 0.00 | 0.00 | 0.00 | 10 | 1005.0 |
| 20260510033344 | 35 | 265 | 0.0 | 12.9 | 0.00 | 0.00 | 0.00 | 10 | 1004.9 |
| 20260510032333 | 35 | 273 | 1.6 | 11.3 | 0.00 | 0.00 | 0.00 | 9 | 1004.7 |
| 20260510031340 | 35 | 254 | 1.6 | 9.7 | 0.00 | 0.00 | 0.00 | 9 | 1004.6 |
| 20260510030333 | 35 | 257 | 3.2 | 14.5 | 0.00 | 0.00 | 0.00 | 9 | 1004.5 |
| 20260510025339 | 36 | 196 | 4.8 | 12.9 | 0.00 | 0.00 | 0.00 | 9 | 1004.4 |
| 20260510024327 | 36 | 259 | 3.2 | 12.9 | 0.00 | 0.00 | 0.00 | 9 | 1004.3 |
| 20260510023335 | 36 | 235 | 1.6 | 12.9 | 0.00 | 0.00 | 0.00 | 9 | 1004.2 |
| 20260510022326 | 36 | 251 | 3.2 | 17.7 | 0.00 | 0.00 | 0.00 | 8 | 1004.1 |
| 20260510021334 | 37 | 263 | 0.0 | 17.7 | 0.00 | 0.00 | 0.00 | 8 | 1004.1 |
| 20260510020341 | 37 | 281 | 6.4 | 17.7 | 0.00 | 0.00 | 0.00 | 8 | 1004.1 |
| 20260510015349 | 37 | 251 | 3.2 | 16.1 | 0.00 | 0.00 | 0.00 | 8 | 1004.0 |
| 20260510014359 | 37 | 237 | 1.6 | 20.9 | 0.00 | 0.00 | 0.00 | 8 | 1004.0 |
| 20260510013326 | 38 | 264 | 11.3 | 20.9 | 0.00 | 0.00 | 0.00 | 8 | 1003.9 |
| 20260510012333 | 38 | 297 | 6.4 | 19.3 | 0.00 | 0.00 | 0.00 | 8 | 1004.0 |
| 20260510011341 | 38 | 278 | 6.4 | 17.7 | 0.00 | 0.00 | 0.00 | 8 | 1004.0 |
| 20260510010333 | 38 | 294 | 3.2 | 19.3 | 0.00 | 0.00 | 0.00 | 8 | 1003.9 |
| 20260510005341 | 38 | 293 | 8.0 | 20.9 | 0.00 | 0.00 | 0.00 | 8 | 1004.0 |
| 20260510004349 | 38 | 275 | 11.3 | 19.3 | 0.00 | 0.00 | 0.00 | 8 | 1004.0 |
| 20260510003353 | 39 | 215 | 1.6 | 16.1 | 0.00 | 0.00 | 0.00 | 9 | 1003.9 |
| 20260510002341 | 39 | 309 | 8.0 | 19.3 | 0.00 | 0.00 | 0.00 | 9 | 1004.0 |
| 20260510001333 | 39 | 327 | 4.8 | 27.4 | 0.00 | 0.00 | 0.00 | 9 | 1004.0 |
| 20260510000403 | 39 | 263 | 6.4 | 20.9 | 0.00 | 0.00 | 0.00 | 9 | 1004.1 |
| 20260509235327 | 39 | 259 | 4.8 | 16.1 | 0.00 | 0.00 | 0.00 | 9 | 1004.1 |
| 20260509234334 | 40 | 327 | 11.3 | 22.5 | 0.00 | 0.00 | 0.00 | 9 | 1004.3 |
| 20260509233341 | 40 | 165 | 3.2 | 19.3 | 0.00 | 0.00 | 0.00 | 9 | 1004.4 |
| 20260509232329 | 40 | 217 | 6.4 | 14.5 | 0.00 | 0.00 | 0.00 | 9 | 1004.4 |
| 20260509231338 | 40 | 256 | 6.4 | 12.9 | 0.00 | 0.00 | 0.00 | 9 | 1004.5 |
| 20260509230329 | 40 | 327 | 6.4 | 17.7 | 0.00 | 0.00 | 0.00 | 9 | 1004.6 |
| 20260509225355 | 40 | 39 | 3.2 | 16.1 | 0.00 | 0.00 | 0.00 | 9 | 1004.6 |
| 20260509224343 | 39 | 5 | 9.7 | 17.7 | 0.00 | 0.00 | 0.00 | 9 | 1004.7 |
| 20260509223331 | 40 | 223 | 3.2 | 16.1 | 0.00 | 0.00 | 0.00 | 9 | 1004.9 |
| 20260509222338 | 40 | 257 | 3.2 | 12.9 | 0.00 | 0.00 | 0.00 | 9 | 1005.0 |
| 20260509221330 | 40 | 266 | 8.0 | 20.9 | 0.00 | 0.00 | 0.00 | 9 | 1005.2 |